Overview Statistics Trail Chart Weather Telemetry Raw packets
 

This is the latest recevied weather packets stored in our database for station/object DH2PG-6. If no packets are shown the sender has not sent any weather packets the latest 10 day(s).

<< 83 84 85 86 87 88 89 >>
Time Temp. Humidity Pressure Rain* Wind** Luminosity Snow
1787916363 22.22° C 67% 1008.3 hPa 0 mm - - -
1787916063 22.22° C 69% 1008.3 hPa 0 mm - - -
1787915462 22.22° C 69% 1008.5 hPa 0 mm - - -
1787914862 22.78° C 70% 1008.4 hPa 0 mm - - -
1787914561 22.78° C 73% 1008.3 hPa 0 mm - - -
1787914261 22.78° C 74% 1008.2 hPa 0 mm - - -
1787913961 22.78° C 76% 1008.3 hPa 0 mm - - -
1787913661 22.78° C 77% 1008.3 hPa 0 mm - - -
1787913360 22.78° C 79% 1008.2 hPa 0 mm - - -
1787913060 22.22° C 81% 1008 hPa 0 mm - - -
1787912760 21.67° C 81% 1007.7 hPa 0 mm - - -
1787912159 21.11° C 82% 1007.4 hPa 0 mm - - -
1787911859 21.11° C 82% 1007.3 hPa 0 mm - - -
1787911559 20.56° C 84% 1007.4 hPa 0 mm - - -
1787911258 20.56° C 84% 1007.5 hPa 0 mm - - -
1787910958 20° C 84% 1007.7 hPa 0 mm - - -
1787910658 20° C 85% 1007.7 hPa 0 mm - - -
1787910358 19.44° C 85% 1007.9 hPa 0 mm - - -
1787910057 19.44° C 85% 1008 hPa 0 mm - - -
1787909457 19.44° C 85% 1007.4 hPa 0 mm - - -
1787909157 19.44° C 85% 1008.1 hPa 0 mm - - -
1787908556 20° C 86% 1008.2 hPa 0 mm - - -
1787907955 20° C 88% 1007.9 hPa 0 mm - - -
1787907655 20° C 89% 1007.9 hPa 0 mm - - -
1787907355 19.44° C 89% 1007.8 hPa 0 mm - - -

* Rain latest hour (hover to see other rain measurements)
** Current wind speed in m/s (hover to see current wind gust speed)